Chezy-en-Orxois, France

2:44 PM CEST on September 24, 2018 (GMT +0200)
Chezy-en-Orxois

Weather History for 07157 - June, 2004

Change the Weather History Date:

Sunday, June 27, 2004

  Actual Average Record
Temperature  
Mean Temperature 70 °F -  
Max Temperature 80 °F 74 °F - ()
Min Temperature 60 °F 56 °F - ()
Cooling Degree Days 5    
Growing Degree Days 20 (Base 50)    
Moisture  
Dew Point 56 °F    
Average Humidity 63    
Maximum Humidity 83    
Minimum Humidity 37    
Precipitation  
Precipitation 0.00 in - - ()
Sea Level Pressure  
Sea Level Pressure 30.08 in    
Wind  
Wind Speed 6 mph ()    
Max Wind Speed 14 mph    
Max Gust Speed -    
Visibility 6.2 miles    
Events Rain    
T = Trace of Precipitation, MM = Missing Value Source: Averaged Metar Reports

Daily Weather History Graph

Daily Weather History Graph

Search for Another Location

Airport or City:

Astronomy

Jun. 27, 2004 Rise Set
Actual Time 5:47 AM CEST 9:58 PM CEST
Civil Twilight 5:04 AM CEST 10:40 PM CEST
Nautical Twilight 4:03 AM CEST 11:41 PM CEST
Astronomical Twilight 2:25 AM CEST 1:20 AM CEST
Moon 4:02 PM CEST (6/27) 2:15 AM CEST (6/27)
Length of Visible Light 17h 36m
Length of Day
16h 10m
Waxing Gibbous, 67% of the Moon is Illuminated
Jun 27
Waxing Gibbous
Jul 2
Full
Jul 9
Last Quarter
Jul 17
New
Jul 25
First Quarter

Hourly Weather History & Observations

Time (CEST) Temp. Dew Point Humidity Pressure Visibility Wind Dir Wind Speed Gust Speed Precip Events Conditions
12:00 AM 68.0 °F 55.4 °F 64% 30.04 in - SSE 3.5 mph - N/A   Clear
12:30 AM 68.0 °F 55.4 °F 64% 30.04 in - SE 6.9 mph - N/A   Clear
1:00 AM 68.0 °F 55.4 °F 64% 30.01 in - SSE 9.2 mph - N/A   Clear
1:30 AM 66.2 °F 55.4 °F 68% 30.01 in - SSE 6.9 mph - N/A   Clear
2:00 AM 66.2 °F 55.4 °F 68% 30.01 in - SSE 3.5 mph - N/A   Clear
2:30 AM 64.4 °F 55.4 °F 73% 30.01 in - SSE 3.5 mph - N/A   Clear
3:00 AM 64.4 °F 55.4 °F 73% 30.01 in - Calm Calm - N/A   Clear
3:30 AM 64.4 °F 55.4 °F 73% 30.01 in - South 3.5 mph - N/A   Clear
4:00 AM 64.4 °F 55.4 °F 73% 30.01 in - West 3.5 mph - N/A   Clear
4:30 AM 62.6 °F 55.4 °F 77% 30.01 in - WSW 2.3 mph - N/A   Clear
5:00 AM 60.8 °F 53.6 °F 77% 30.01 in - Calm Calm - N/A   Clear
5:30 AM 60.8 °F 55.4 °F 82% 30.01 in - West 2.3 mph - N/A   Clear
6:00 AM 62.6 °F 57.2 °F 82% 30.04 in - West 5.8 mph - N/A   Clear
6:30 AM 64.4 °F 57.2 °F 77% 30.04 in - West 5.8 mph - N/A   Clear
7:00 AM 64.4 °F 57.2 °F 77% 30.04 in - West 4.6 mph - N/A   Clear
7:30 AM 64.4 °F 59.0 °F 83% 30.06 in - West 6.9 mph - N/A   Clear
8:00 AM 66.2 °F 59.0 °F 78% 30.06 in 6.2 mi West 9.2 mph - N/A   Mostly Cloudy
8:30 AM 66.2 °F 60.8 °F 83% 30.06 in 6.2 mi WNW 11.5 mph - N/A   Mostly Cloudy
9:00 AM 68.0 °F 60.8 °F 78% 30.06 in 6.2 mi WNW 10.4 mph - N/A   Scattered Clouds
9:30 AM 68.0 °F 60.8 °F 78% 30.09 in 6.2 mi WNW 11.5 mph - N/A   Mostly Cloudy
10:00 AM 68.0 °F 60.8 °F 78% 30.09 in 6.2 mi WNW 9.2 mph - N/A   Mostly Cloudy
10:30 AM 68.0 °F 60.8 °F 78% 30.09 in 6.2 mi WNW 9.2 mph - N/A Rain Light Rain Showers
11:00 AM 68.0 °F 60.8 °F 78% 30.09 in 6.2 mi West 9.2 mph - N/A   Mostly Cloudy
11:30 AM 69.8 °F 60.8 °F 73% 30.09 in 6.2 mi West 6.9 mph - N/A   Mostly Cloudy
12:00 PM 71.6 °F 60.8 °F 69% 30.09 in 6.2 mi WSW 11.5 mph - N/A   Mostly Cloudy
12:30 PM 73.4 °F 59.0 °F 61% 30.09 in 6.2 mi WSW 6.9 mph - N/A   Scattered Clouds
1:00 PM 73.4 °F 57.2 °F 57% 30.09 in 6.2 mi WSW 9.2 mph - N/A   Scattered Clouds
1:30 PM 77.0 °F 57.2 °F 50% 30.09 in 6.2 mi West 9.2 mph - N/A   Scattered Clouds
2:00 PM 77.0 °F 57.2 °F 50% 30.09 in 6.2 mi West 9.2 mph - N/A   Scattered Clouds
2:30 PM 77.0 °F 55.4 °F 47% 30.09 in 6.2 mi West 8.1 mph - N/A   Scattered Clouds
3:00 PM 78.8 °F 53.6 °F 42% 30.09 in 6.2 mi West 10.4 mph - N/A   Scattered Clouds
3:30 PM 78.8 °F 51.8 °F 39% 30.09 in 6.2 mi West 8.1 mph - N/A   Scattered Clouds
4:00 PM 80.6 °F 51.8 °F 37% 30.09 in - WNW 9.2 mph - N/A   Clear
4:30 PM 80.6 °F 51.8 °F 37% 30.09 in - West 9.2 mph - N/A   Clear
5:00 PM 78.8 °F 53.6 °F 42% 30.09 in - NNW 11.5 mph - N/A   Clear
5:30 PM 77.0 °F 53.6 °F 44% 30.09 in - NNW 13.8 mph - N/A   Clear
6:00 PM 77.0 °F 51.8 °F 41% 30.09 in - NNW 12.7 mph - N/A   Clear
6:30 PM 75.2 °F 51.8 °F 44% 30.12 in - NW 13.8 mph - N/A   Clear
7:00 PM 73.4 °F 51.8 °F 47% 30.12 in - NNW 12.7 mph - N/A   Clear
7:30 PM 71.6 °F 50.0 °F 46% 30.12 in - NW 13.8 mph - N/A   Clear
8:00 PM 71.6 °F 51.8 °F 50% 30.15 in - NW 8.1 mph - N/A   Clear
8:30 PM 71.6 °F 53.6 °F 53% 30.15 in - NW 10.4 mph - N/A   Clear
9:00 PM 71.6 °F 53.6 °F 53% 30.15 in - NNW 9.2 mph - N/A   Clear
9:30 PM 69.8 °F 53.6 °F 56% 30.18 in - NNW 9.2 mph - N/A   Clear
10:00 PM 68.0 °F 53.6 °F 60% 30.18 in - NW 5.8 mph - N/A   Clear
10:30 PM 66.2 °F 53.6 °F 64% 30.21 in - NW 4.6 mph - N/A   Clear
11:00 PM 64.4 °F 51.8 °F 64% 30.21 in - NW 5.8 mph - N/A   Clear
11:30 PM 62.6 °F 51.8 °F 68% 30.21 in - NW 6.9 mph - N/A   Clear